Location: Most
(50.5133°N, 13.6207°E)
Time: 09:56:27
(UTC+01:00)

Oscar 11 - Pass Details

Date: 04 December 2022
Orbit: 611 x 621 km, 97.6° (Epoch: 28 January)

Event Time Altitude Azimuth Distance (km) Brightness Sun altitude
Rises 16:56:00 0° 206° (SSW) 2,880 11.4 -8.1°
Reaches altitude 10° 16:58:44 10° 224° (SW) 1,978 11.0 -8.5°
Maximum altitude 17:01:47 19° 270° (W) 1,489 10.0 -8.9°
Drops below altitude 10° 17:04:52 10° 315° (NW) 1,986 9.9 -9.4°
Sets 17:07:38 0° 334° (NNW) 2,895 10.5 -9.8°
